Regional Weather Roundup
Issued by NWS

Home | Current Version | Previous Version | Text Only | Print | Product List | Glossary On
Versions: 1 2 3 4 5 6 7 8 9 10 11 12 13 14 15 16 17 18 19 20 21 22 23 24 25 26 27 28 29 30 31 32 33 34 35 36 37 38 39 40 41 42 43 44 45 46 47 48 49 50
000
ASUS45 KPSR 230810
RWRAZ

ARIZONA HOURLY REGIONAL WEATHER ROUNDUP
NATIONAL WEATHER SERVICE PHOENIX AZ
100 AM MST SAT MAY 23 2015

NOTE: FAIR INDICATES FEW OR NO CLOUDS BELOW 12,000 FEET WITH NO
SIGNIFICANT WEATHER AND/OR OBSTRUCTIONS TO VISIBILITY.

AZZ001>003-036-230900-
NORTHWEST ARIZONA

CITY           SKY/WX    TMP DP  RH WIND       PRES   REMARKS
BULLHEAD CITY  PTCLDY    66  45  45 CALM      29.91S
KINGMAN        MOCLDY    49  39  68 SE9       29.98S
$$

AZZ004>008-015-016-018-230900-
NORTH CENTRAL ARIZONA

CITY           SKY/WX    TMP DP  RH WIND       PRES   REMARKS
GRAND CANYON   PTCLDY    30  29  96 CALM      30.04F
WILLIAMS       MOCLDY    37  34  87 S7        30.11S WCI  32
PRESCOTT       PTCLDY    48  34  58 CALM      30.03S
FLAGSTAFF      MOCLDY    35  32  88 CALM      30.06S
PAYSON         CLEAR     48  30  49 SW5       30.05F
PAGE           MOCLDY    50  39  66 N5        29.97S
$$

AZZ009>014-017-230900-
NORTHEAST ARIZONA

CITY           SKY/WX    TMP DP  RH WIND       PRES   REMARKS
WINSLOW        CLEAR     41  30  65 W5        30.03S
SAINT JOHNS    CLEAR     44  31  60 W3        30.04S
WINDOW ROCK    PTCLDY    39  25  57 CALM      30.07R
SHOW LOW       CLEAR     43  32  65 S10       30.06F
$$

AZZ023-230900-
GREATER PHOENIX AREA

CITY           SKY/WX    TMP DP  RH WIND       PRES   REMARKS
PHOENIX        CLEAR     70  37  29 W6        29.92S
BUCKEYE        CLEAR     61  37  41 N6        29.94S
LUKE AFB       CLEAR     66  40  39 N2        29.92S
DEER VALLEY    CLEAR     64  37  36 NW3       29.93S
SCOTTSDALE     CLEAR     67  37  33 CALM      29.95S
MESA-GATEWAY   CLEAR     61  37  41 NW6       29.96S
$$

AZZ027-028-230900-
SOUTHWEST MARICOPA COUNTY AND PINAL COUNTY

CITY           SKY/WX    TMP DP  RH WIND       PRES   REMARKS
CASA GRANDE    CLEAR     61  37  41 CALM      29.94S
GILA BEND      FAIR      64  41  42 SW10      29.94S
$$

AZZ503-504-507>509-230900-
SOUTHEAST ARIZONA

CITY           SKY/WX    TMP DP  RH WIND       PRES   REMARKS
TUCSON         CLEAR     62  32  32 CALM      30.00F
DAVIS-MONTHAN  CLEAR     60  32  34 W6        29.98S
NOGALES        CLEAR     53  34  48 NW3       30.03F
SIERRA VISTA   PTCLDY    54  35  49 NW6       30.06S
DOUGLAS        PTCLDY    53  30  41 N8        30.03R
SAFFORD        PTCLDY    63  39  41 NW13      29.95S
$$

AZZ020-021-025-026-031-230900-
SOUTHWEST ARIZONA

CITY           SKY/WX    TMP DP  RH WIND       PRES   REMARKS
YUMA           CLEAR     64  45  49 SW5       29.95S
$$

CAZ031-033-041-043-047-048-061-230900-
SOUTHERN CALIFORNIA

CITY           SKY/WX    TMP DP  RH WIND       PRES   REMARKS
DOWNTOWN L.A.  MOCLDY    61  51  70 CALM      30.05F
L.A. AIRPORT   PTCLDY    59  54  83 W10       30.06F
SAN DIEGO      MOCLDY    62  53  72 CALM      30.10S
BURBANK        CLOUDY    60  50  69 SE5       30.05S
ONTARIO        MOCLDY    57  51  80 SW7       30.05F
RIVERSIDE      CLOUDY    58  52  80 NE3       30.06F
PALM SPRINGS   CLEAR     66  44  45 CALM      29.95S
EL CENTRO NAS  CLEAR     64  43  46 SW17      29.97S
IMPERIAL       CLEAR     63  44  50 W15       29.94S
BLYTHE         PTCLDY    62  48  60 S10       29.91S
NEEDLES        PTCLDY    67  43  41 SE3       29.91R
$$

NVZ020-UTZ003-230900-
SOUTHERN NEVADA-UTAH

CITY           SKY/WX    TMP DP  RH WIND       PRES   REMARKS
LAS VEGAS      PTCLDY    63  40  42 S12       29.87R
SALT LAKE CITY LGT RAIN  54  44  69 SE13      29.91R
$$

NMZ009-TXZ055-230900-
NEW MEXICO-WEST TEXAS

CITY           SKY/WX    TMP DP  RH WIND       PRES   REMARKS
ALBUQUERQUE    PTCLDY    59  27  29 W9        29.98S
EL PASO        CLOUDY    74  21  13 SW17      29.95R
$$


........................KEY........................
SKY/WX - SKY CONDITION/WEATHER
TMP    - TEMPERATURE IN FAHRENHEIT
DP     - DEW POINT IN FAHRENHEIT
RH     - RELATIVE HUMIDITY IN PERCENT
WIND   - DIRECTION AND SPEED IN MILES PER HOUR (MPH)
VRB    - VARIABLE WIND DIRECTION
PRES   - MEAN SEA LEVEL PRESSURE IN INCHES OF MERCURY
         F - FALLING PRESSURE   R - RISING PRESSURE
         S - STEADY PRESSURE
VSB    - VISIBILITY IN MILES
HX     - HEAT INDEX IN FAHRENHEIT
WCI    - WIND CHILL INDEX IN FAHRENHEIT
TC     - TEMPERATURE IN CELSIUS WHICH IS ALSO KNOWN AS
         TEMPERATURE IN CENTIGRADE
AFB    - AIR FORCE BASE
         LUKE AFB IS LUKE AIR FORCE BASE
         DAVIS-MONTHAN IS DAVIS-MONTHAN AIR FORCE BASE
NAS    - NAVAL AIR STATION
         EL CENTRO NAS IS EL CENTRO NAVAL AIR STATION
N/A    - NOT AVAILABLE



USA.gov is the U.S. government's official web portal to all federal, state and local government web resources and services.